Regional Weather Roundup
Issued by NWS

Home | Current Version | Previous Version | Graphics & Text | Print | Product List | Glossary On
Versions: 1 2 3 4 5 6 7 8 9 10 11 12 13 14 15 16 17 18 19 20 21 22 23 24 25 26 27 28 29 30 31 32 33 34 35 36 37 38 39 40 41 42 43 44 45 46 47 48 49 50
000
ASUS43 KLMK 290410
RWRKY
KENTUCKY REGIONAL WEATHER ROUNDUP
NATIONAL WEATHER SERVICE LOUISVILLE KY
1200 AM EDT MON MAY 29 2017

NOTE "FAIR" INDICATES FEW OR NO CLOUDS BELOW 12,000 FEET
WITH NO SIGNIFICANT WEATHER AND/OR OBSTRUCTIONS TO VISIBILITY.

KYZ001>023-026-027-061>063-070>075-290500-
WESTERN AND SOUTH CENTRAL KENTUCKY

CITY           SKY/WX    TMP DP  RH WIND       PRES   REMARKS
PADUCAH        CLEAR     66  64  93 SW5       29.91R
HENDERSON      PTCLDY    67  66  97 SW7       29.90R
OWENSBORO      CLEAR     67  65  93 SW8       29.90R
HOPKINSVILLE   CLOUDY    66  65  94 W6        29.91F
BOWLING GREEN  PTCLDY    69  64  84 SW7       29.91S
GLASGOW        MOCLDY    65  65 100 CALM      29.92S
$$

KYZ024-025-028>034-038-045-046-053-290500-
NORTH CENTRAL KENTUCKY

CITY           SKY/WX    TMP DP  RH WIND       PRES   REMARKS
LOUISVILLE/SDF PTCLDY    70  65  84 SW6       29.86F
LOUISVILLE/LOU CLOUDY    70  66  87 SW8       29.87S
FORT KNOX      CLEAR     66  64  92 W7        29.87S
$$

KYZ035>037-039>044-047>052-055>060-089>105-290500-
NORTHEAST KENTUCKY

CITY           SKY/WX    TMP DP  RH WIND       PRES   REMARKS
LEXINGTON      MOCLDY    67  62  84 W7        29.89R
COVINGTON      LGT RAIN  64  63  96 SW6       29.86R
FRANKFORT      PTCLDY    67  61  81 SW8       29.86S
$$

KYZ054-064>069-076>088-106>120-290500-
SOUTHEAST KENTUCKY

CITY           SKY/WX    TMP DP  RH WIND       PRES   REMARKS
JACKSON        PTCLDY    67  61  81 VRB5      29.91R
LONDON         MOCLDY    68  60  75 CALM      29.92R
SOMERSET       CLEAR     64  61  88 W3        29.93S
MIDDLESBORO    CLOUDY    64  63  96 CALM      29.94R
MONTICELLO     CLEAR     67  62  84 W14       29.94S
$$




USA.gov is the U.S. government's official web portal to all federal, state and local government web resources and services.